Change the Weather History Date:

Wednesday, June 26, 2013

  Actual Average Record
Temperature  
Mean Temperature 86 °F -  
Max Temperature 100 °F 94 °F 104 °F (1998)
Min Temperature 71 °F 65 °F 61 °F (1997)
Cooling Degree Days 21    
Month to date cooling degree days 447  
Year to date cooling degree days 695  
Since 1 June cooling degree days 447  
Growing Degree Days 35 (Base 50)    
Moisture  
Dew Point 5 °F    
Average Humidity 6    
Maximum Humidity 8    
Minimum Humidity 3    
Precipitation  
Precipitation 0.00 in - 1.80 in (2000)
Month to date precipitation T  
Year to date precipitation 0.28  
Sea Level Pressure  
Sea Level Pressure 29.79 in    
Wind  
Wind Speed 8 mph (NNW)    
Max Wind Speed 17 mph    
Max Gust Speed 24 mph    
Visibility 10 miles    
Events      
T = Trace of Precipitation, MM = Missing Value Source: NWS Daily Summary

Daily Weather History Graph

Daily Weather History Graph

Search for Another Location

Airport or City:

Trip Planner

Search our weather history database for the weather conditions in past years. The results will help you decide how hot, cold, wet, or windy it might be!

Date:

Astronomy

Jun. 26, 2013 Rise Set
Actual Time 6:01 AM MDT 8:22 PM MDT
Civil Twilight 5:32 AM MDT 8:51 PM MDT
Nautical Twilight 4:57 AM MDT 9:26 PM MDT
Astronomical Twilight 4:18 AM MDT 10:04 PM MDT
Moon 11:01 PM MDT (6/26) 9:44 AM MDT (6/26)
Length of Visible Light 15h 18m
Length of Day
14h 20m
Waning Gibbous, 85% of the Moon is Illuminated
Jun 26
Waning Gibbous
Jun 29
Last Quarter
Jul 8
New
Jul 15
First Quarter
Jul 22
Full

Hourly Weather History & Observations

Time (MDT) Temp. Dew Point Humidity Pressure Visibility Wind Dir Wind Speed Gust Speed Precip Events Conditions
12:53 AM 73.9 °F 3.9 °F 7% 29.77 in 10.0 mi West 6.9 mph - N/A   Clear
1:53 AM 75.0 °F 3.9 °F 6% 29.78 in 10.0 mi West 6.9 mph - N/A   Clear
2:53 AM 75.0 °F 5.0 °F 7% 29.75 in 10.0 mi WNW 11.5 mph - N/A   Clear
3:53 AM 75.9 °F 6.1 °F 7% 29.75 in 10.0 mi NW 13.8 mph - N/A   Clear
4:53 AM 73.9 °F 6.1 °F 7% 29.78 in 10.0 mi NW 8.1 mph - N/A   Clear
5:53 AM 72.0 °F 6.1 °F 8% 29.81 in 10.0 mi NW 11.5 mph - N/A   Clear
6:53 AM 73.0 °F 7.0 °F 8% 29.82 in 10.0 mi NW 13.8 mph 20.7 mph N/A   Clear
7:53 AM 78.1 °F 9.0 °F 7% 29.84 in 10.0 mi NNW 9.2 mph 18.4 mph N/A   Clear
8:53 AM 82.0 °F 7.0 °F 6% 29.86 in 10.0 mi ENE 6.9 mph - N/A   Clear
9:53 AM 86.0 °F 7.0 °F 5% 29.86 in 10.0 mi NE 4.6 mph - N/A   Clear
10:53 AM 91.0 °F 5.0 °F 4% 29.87 in 10.0 mi ENE 8.1 mph - N/A   Clear
11:53 AM 93.9 °F 3.9 °F 4% 29.85 in 10.0 mi NE 9.2 mph - N/A   Clear
12:53 PM 95.0 °F 3.0 °F 4% 29.84 in 10.0 mi Calm Calm - N/A   Clear
1:53 PM 98.1 °F 1.9 °F 4% 29.81 in 10.0 mi NE 5.8 mph - N/A   Clear
2:53 PM 98.1 °F 5.0 °F 4% 29.80 in 10.0 mi ESE 8.1 mph 17.3 mph N/A   Clear
3:53 PM 99.0 °F 3.0 °F 4% 29.77 in 10.0 mi East 10.4 mph 20.7 mph N/A   Clear
4:53 PM 99.0 °F 3.0 °F 4% 29.76 in 10.0 mi ESE 8.1 mph - N/A   Clear
5:53 PM 98.1 °F 3.0 °F 4% 29.75 in 10.0 mi SSE 8.1 mph - N/A   Clear
6:53 PM 98.1 °F 3.0 °F 4% 29.74 in 10.0 mi SSE 3.5 mph - N/A   Clear
7:53 PM 96.1 °F 3.9 °F 4% 29.73 in 10.0 mi South 5.8 mph - N/A   Clear
8:53 PM 90.0 °F 6.1 °F 4% 29.75 in 10.0 mi SSW 4.6 mph - N/A   Clear
9:53 PM 84.9 °F 7.0 °F 5% 29.76 in 10.0 mi WSW 5.8 mph - N/A   Clear
10:53 PM 82.0 °F 6.1 °F 6% 29.78 in 10.0 mi WNW 9.2 mph - N/A   Clear
11:53 PM 78.1 °F 6.1 °F 6% 29.79 in 10.0 mi West 10.4 mph - N/A   Clear